Temperature
4 3 2 2 1 0 -0 -1 -2 -3 -4 -4 -5 -6 -7 -7 -8 -8 -9 -9 -9 -9 -9 -10 -10 -11 -11 -11 -12 -12 -12 -12 -13 -12 -11 -11 -10 -10 -10 -9 -9 -8 -8
4 3 2 2 1 0 -0 -1 -2 -3 -4 -5 -5 -6 -7 -7 -8 -8 -9 -9 -9 -9 -9 -10 -10 -10 -11 -11 -12 -12 -12 -12 -12 -12 -11 -11 -11 -10 -10 -10 -9 -9 -8
4 3 2 2 1 0 -1 -2 -2 -3 -4 -5 -5 -6 -6 -7 -8 -8 -8 -8 -9 -9 -9 -10 -10 -11 -11 -11 -12 -12 -12 -11 -11 -12 -11 -11 -11 -10 -11 -10 -10 -9 -8
4 3 2 2 1 -0 -1 -2 -2 -3 -4 -4 -5 -6 -6 -7 -7 -8 -8 -8 -8 -9 -9 -10 -10 -11 -11 -11 -11 -11 -11 -11 -11 -11 -11 -11 -11 -11 -11 -11 -10 -9 -8
4 3 2 2 0 -1 -1 -2 -3 -3 -4 -4 -5 -5 -6 -7 -7 -8 -8 -9 -8 -9 -9 -9 -10 -11 -11 -11 -11 -11 -11 -11 -11 -11 -12 -12 -12 -12 -11 -11 -11 -10 -8
4 3 2 1 0 -1 -1 -2 -2 -3 -4 -4 -5 -5 -6 -6 -7 -8 -9 -8 -8 -9 -9 -10 -10 -11 -11 -11 -11 -11 -11 -11 -11 -11 -12 -12 -12 -12 -12 -12 -12 -11 -11
5 3 2 1 0 -1 -1 -2 -2 -3 -4 -4 -5 -5 -5 -6 -7 -8 -9 -8 -8 -9 -9 -10 -10 -11 -11 -11 -11 -11 -11 -11 -12 -12 -12 -12 -12 -12 -12 -12 -11 -11 -11
5 3 2 1 0 -1 -1 -2 -2 -3 -3 -4 -4 -5 -5 -5 -6 -8 -9 -9 -9 -9 -9 -10 -10 -10 -10 -10 -10 -11 -11 -11 -12 -12 -12 -12 -12 -12 -12 -11 -11 -11 -10
5 4 3 1 0 -1 -1 -1 -2 -3 -3 -4 -4 -5 -5 -5 -6 -8 -9 -9 -9 -9 -9 -10 -10 -10 -10 -10 -10 -11 -11 -11 -12 -12 -12 -12 -12 -12 -12 -12 -11 -12 -11
6 5 3 2 0 -0 -1 -1 -2 -3 -3 -4 -4 -5 -5 -5 -6 -7 -9 -9 -9 -9 -9 -10 -10 -10 -10 -10 -10 -11 -11 -11 -12 -12 -13 -13 -13 -13 -12 -12 -12 -12 -12
6 4 3 1 0 -0 -1 -2 -2 -3 -3 -4 -4 -5 -5 -6 -6 -7 -9 -9 -9 -9 -10 -10 -10 -10 -10 -10 -11 -11 -11 -11 -12 -13 -13 -13 -13 -12 -12 -12 -12 -12 -11
5 4 3 1 0 -1 -1 -2 -2 -3 -3 -3 -4 -4 -5 -6 -6 -7 -9 -9 -9 -10 -10 -10 -10 -10 -10 -11 -11 -11 -11 -12 -12 -13 -13 -13 -13 -12 -12 -12 -11 -11 -10
5 4 2 1 0 -1 -1 -2 -2 -3 -3 -3 -4 -4 -5 -6 -6 -7 -8 -9 -9 -10 -10 -10 -10 -10 -10 -10 -11 -11 -12 -12 -12 -13 -13 -13 -13 -12 -12 -11 -11 -10 -9
4 3 2 1 0 -1 -1 -2 -2 -2 -3 -3 -4 -4 -5 -5 -6 -7 -8 -9 -9 -9 -9 -9 -10 -10 -10 -10 -10 -11 -11 -12 -12 -13 -13 -13 -12 -12 -11 -11 -10 -9 -8
3 2 1 1 -0 -1 -1 -1 -2 -2 -3 -3 -4 -5 -5 -5 -6 -8 -9 -9 -10 -10 -10 -9 -9 -9 -9 -10 -10 -10 -11 -11 -12 -12 -12 -12 -12 -12 -11 -10 -9 -8 -8
3 1 1 0 -0 -1 -1 -2 -2 -3 -3 -4 -4 -4 -5 -6 -7 -8 -9 -9 -9 -9 -9 -9 -9 -9 -10 -10 -10 -10 -11 -11 -12 -12 -12 -12 -12 -12 -11 -10 -9 -8 -7
2 1 0 -0 -0 -1 -1 -2 -2 -3 -3 -4 -4 -5 -5 -6 -7 -8 -8 -8 -8 -9 -9 -9 -9 -10 -10 -10 -10 -10 -11 -11 -11 -11 -12 -12 -12 -11 -11 -10 -9 -8 -6
1 -0 -1 -1 -0 -1 -1 -1 -2 -3 -3 -4 -4 -5 -5 -6 -7 -7 -8 -8 -8 -9 -9 -9 -9 -9 -10 -10 -10 -10 -10 -11 -11 -11 -11 -11 -11 -11 -11 -10 -9 -8 -6
0 -1 -2 -2 -1 -1 -1 -2 -2 -3 -3 -4 -4 -5 -5 -6 -7 -7 -7 -8 -8 -8 -9 -9 -9 -9 -10 -10 -10 -10 -10 -10 -11 -11 -11 -11 -11 -11 -10 -10 -9 -8 -6
-1 -2 -3 -3 -2 -2 -2 -2 -2 -3 -3 -4 -4 -5 -5 -6 -6 -7 -7 -8 -8 -8 -8 -9 -9 -9 -9 -10 -10 -10 -10 -10 -10 -10 -11 -11 -11 -11 -10 -10 -9 -8 -6
-1 -2 -4 -5 -4 -3 -2 -2 -2 -3 -3 -4 -4 -5 -5 -6 -6 -7 -7 -7 -8 -8 -8 -9 -9 -9 -9 -9 -9 -10 -10 -10 -10 -10 -10 -10 -10 -10 -10 -9 -9 -8 -6
-2 -3 -5 -6 -5 -4 -3 -2 -2 -3 -3 -4 -4 -5 -5 -6 -6 -7 -7 -7 -8 -8 -8 -8 -9 -9 -9 -9 -9 -9 -10 -10 -10 -10 -10 -10 -10 -10 -10 -9 -9 -8 -6
-3 -3 -5 -6 -5 -5 -4 -3 -3 -3 -3 -4 -4 -5 -5 -5 -6 -7 -7 -7 -7 -8 -8 -8 -8 -9 -9 -9 -9 -9 -9 -10 -10 -10 -10 -10 -10 -10 -10 -10 -9 -8 -7
-3 -4 -5 -6 -6 -6 -5 -3 -3 -3 -3 -4 -4 -5 -5 -5 -6 -7 -7 -7 -7 -8 -8 -8 -8 -8 -9 -9 -9 -9 -9 -9 -10 -10 -10 -10 -10 -10 -10 -9 -9 -9 -8
-4 -5 -6 -7 -7 -7 -6 -4 -3 -3 -4 -4 -4 -4 -5 -5 -6 -6 -7 -7 -7 -7 -8 -8 -8 -8 -8 -9 -9 -9 -9 -9 -9 -10 -10 -10 -10 -10 -10 -9 -9 -9 -8
-5 -6 -7 -7 -7 -7 -6 -4 -4 -3 -4 -4 -4 -4 -5 -5 -6 -6 -7 -7 -7 -7 -8 -8 -8 -8 -8 -8 -8 -9 -9 -9 -9 -10 -10 -10 -10 -10 -10 -10 -9 -9 -9
Wind_Speed
15 13 11 11 10 9 8 9 8 7 8 7 7 7 8 9 8 8 10 10 11 13 13 12 14 13 11 10 9 9 10 11 15 15 13 11 11 12 13 13 15 13 13
15 13 13 10 10 9 9 9 7 8 7 8 7 8 9 9 9 9 12 12 12 14 15 15 16 14 13 11 10 11 11 12 14 17 14 10 10 11 11 11 11 12 11
14 14 13 11 11 11 10 9 8 8 7 7 7 8 9 10 10 10 11 13 14 15 16 16 16 15 14 12 12 11 11 13 12 14 14 10 9 9 10 11 11 10 13
15 14 14 14 13 11 9 9 8 8 7 8 8 9 10 10 10 11 12 13 14 15 15 14 14 13 13 13 12 13 13 13 12 11 12 11 9 8 7 9 11 9 10
16 16 15 13 11 9 9 9 8 8 8 8 8 9 10 9 9 11 12 13 12 11 10 10 11 14 17 15 13 10 10 10 10 10 12 12 10 7 7 7 11 11 11
17 16 13 11 11 11 10 10 9 8 7 7 8 9 10 10 17 22 17 9 8 8 9 9 10 13 17 21 23 22 18 12 10 10 11 11 10 9 9 10 10 11 8
17 15 13 13 13 12 11 10 10 8 7 8 8 9 11 13 20 21 21 11 6 7 8 8 9 11 16 10 18 21 17 20 20 13 12 12 12 11 11 13 11 11 11
16 15 14 14 13 12 11 11 10 8 7 8 9 9 10 12 18 19 20 8 7 8 9 9 10 11 14 16 13 9 10 12 14 11 10 12 13 12 13 13 13 12 11
18 17 16 15 14 13 13 13 10 8 8 8 8 9 9 11 16 17 17 6 7 8 8 9 10 10 20 24 11 8 10 10 13 16 19 17 19 19 15 9 7 8 10
20 18 17 16 16 15 15 12 9 8 8 8 8 7 8 8 13 16 16 5 7 7 7 8 14 17 21 20 9 7 11 10 8 11 13 15 12 13 16 8 5 7 7
15 15 15 16 16 15 12 11 9 8 7 7 7 7 7 8 11 14 15 6 6 6 7 7 9 20 21 19 16 9 14 12 7 9 10 9 8 7 8 7 7 7 9
14 16 16 16 14 13 12 11 9 9 8 7 7 7 6 7 9 11 14 13 12 6 7 7 10 19 19 18 15 17 20 16 9 9 10 9 9 8 8 8 9 10 11
16 17 16 16 14 13 13 12 9 8 7 7 6 6 5 5 6 12 13 14 14 8 7 12 15 17 16 13 16 19 15 9 9 10 10 10 9 8 9 8 8 9 11
17 17 15 15 15 13 11 11 9 9 8 7 7 6 5 4 5 6 7 7 10 9 7 9 13 14 12 14 14 12 9 9 9 9 10 10 9 8 8 7 7 6 6
16 15 15 14 14 13 12 11 11 10 9 8 7 6 5 5 7 10 7 4 5 5 5 4 5 7 8 9 9 9 8 8 9 9 9 10 10 9 9 8 6 6 4
15 15 13 12 12 11 11 9 15 13 15 16 14 10 8 9 11 11 10 9 9 8 5 4 6 7 9 10 11 11 10 9 9 9 10 10 10 10 9 8 7 6 6
16 15 13 13 13 12 12 11 9 11 15 15 15 15 12 11 10 9 8 6 6 5 3 4 5 7 8 9 10 10 9 9 8 8 9 9 10 10 9 9 8 8 7
15 17 16 13 13 13 12 11 10 10 9 7 9 13 12 10 8 7 4 2 2 3 2 4 5 6 8 9 9 9 9 9 8 8 8 9 9 9 9 9 8 9 8
15 12 13 12 12 12 11 11 10 10 9 6 4 6 10 8 7 5 3 2 2 3 3 4 5 6 7 8 9 9 9 8 8 8 8 9 9 9 9 9 9 12 9
14 20 17 12 12 12 11 11 11 10 9 8 8 7 5 5 4 4 3 3 3 3 4 4 5 6 7 7 8 8 8 7 7 7 7 8 8 8 10 11 10 10 9
11 15 23 15 12 13 13 12 12 11 10 9 8 9 12 6 6 5 5 4 4 4 4 4 5 6 6 7 7 8 9 7 6 7 7 7 8 8 8 9 10 9 9
11 11 12 11 12 12 12 12 11 11 11 10 7 9 15 8 6 5 5 4 4 4 4 4 5 5 6 6 7 8 8 7 7 7 7 7 8 8 9 9 10 10 10
11 12 12 12 11 16 14 11 11 11 11 10 9 9 8 7 7 6 5 5 4 4 4 4 4 5 6 5 6 6 6 6 5 5 6 7 8 8 8 9 10 11 11
12 14 14 13 13 12 12 12 12 12 11 10 10 9 8 7 7 6 6 4 4 3 3 4 4 6 9 7 7 7 5 4 3 3 5 6 7 8 8 9 10 12 10
12 13 14 13 14 13 13 12 12 12 11 11 10 10 9 8 7 6 5 5 4 4 4 4 4 5 8 9 9 9 7 5 5 4 3 5 7 8 8 9 10 10 10
13 14 13 12 13 13 13 12 12 12 12 11 10 10 9 9 8 7 6 5 4 4 3 3 5 6 8 8 10 12 8 4 4 5 4 4 6 7 8 8 10 10 10
Wind_Direction
193 194 192 192 195 197 204 214 221 229 235 238 245 250 257 260 259 260 266 270 269 273 274 272 272 272 270 268 265 263 265 266 277 287 287 287 286 292 298 299 299 295 297
193 191 194 190 190 198 209 217 218 227 233 240 247 254 260 264 261 262 272 278 273 274 275 274 275 276 271 268 267 267 270 270 272 282 288 288 283 286 289 292 300 301 298
189 191 193 194 196 204 211 216 217 223 233 244 249 257 262 264 266 266 267 272 273 274 275 276 276 275 273 269 268 270 272 275 272 278 286 289 285 283 288 292 292 290 292
190 192 197 201 202 204 206 210 215 221 234 246 253 259 264 265 267 271 271 271 273 274 274 274 273 271 268 267 270 268 271 276 279 282 287 289 286 278 279 295 300 294 293
192 197 203 199 195 196 202 209 215 224 239 247 258 266 269 271 269 267 266 267 273 278 276 271 273 280 281 281 279 272 276 283 288 290 290 291 290 290 288 291 295 298 294
195 200 197 189 191 198 204 210 217 228 240 250 258 266 274 278 289 295 297 282 282 282 280 278 280 284 290 296 299 299 297 297 294 289 289 286 285 281 284 285 287 291 295
198 196 191 189 195 201 206 211 220 228 238 251 259 265 271 280 294 299 302 304 280 277 277 282 292 294 302 290 292 295 294 297 299 296 291 286 285 282 279 279 273 270 270
198 195 191 190 195 198 204 216 222 224 234 248 259 265 271 282 296 302 305 308 277 274 276 277 281 282 289 290 283 272 267 276 286 288 276 276 277 274 266 267 269 271 271
200 198 194 190 192 197 208 218 219 220 234 245 255 262 268 282 298 302 307 292 285 282 281 282 289 283 295 304 307 288 286 286 296 300 301 300 299 299 295 288 281 278 283
204 199 193 190 193 200 210 214 213 216 231 245 256 256 264 274 294 303 308 294 293 289 286 289 307 311 312 324 323 300 298 298 296 302 304 304 298 295 295 284 266 267 273
197 190 189 191 195 200 204 208 209 215 227 238 254 261 264 275 294 303 306 306 299 297 303 304 308 318 327 333 333 317 313 327 321 307 303 297 291 281 275 263 242 239 245
186 188 190 191 192 196 199 204 207 211 222 238 251 263 256 267 288 297 307 316 319 303 303 303 308 325 335 336 331 326 334 337 320 313 312 309 305 298 287 274 257 242 237
187 191 191 189 192 192 194 199 202 206 216 232 240 256 260 258 278 299 309 316 321 319 306 319 328 334 336 331 328 335 338 326 317 319 316 312 306 296 292 287 275 257 247
191 193 190 189 192 193 195 197 200 203 209 221 231 244 253 261 272 281 279 290 310 316 316 324 334 337 337 333 333 329 322 318 324 320 316 313 311 309 306 301 298 293 273
194 193 191 192 190 193 198 201 202 204 202 207 218 225 233 250 266 286 300 293 298 307 328 324 329 336 338 333 329 326 324 325 328 324 322 324 323 323 320 318 306 301 277
195 194 192 190 189 191 193 203 218 213 222 227 224 220 230 247 274 293 307 315 322 336 348 328 333 335 332 329 328 328 328 330 331 330 328 329 327 325 324 323 321 309 297
196 192 190 189 189 190 189 190 198 215 223 227 230 233 237 249 267 286 300 318 321 342 340 316 321 324 325 324 324 325 326 326 327 328 329 330 330 328 328 329 329 325 316
197 194 190 189 189 189 189 189 188 188 198 215 225 229 233 241 256 270 289 322 315 325 299 306 314 317 320 322 324 325 324 326 330 331 330 331 332 331 331 332 330 326 322
197 195 191 186 187 187 185 183 184 187 192 190 184 215 221 224 234 243 234 212 254 281 294 303 306 311 316 320 322 322 322 324 329 331 331 333 334 334 333 332 330 331 331
199 200 191 186 185 184 183 181 183 186 189 192 196 196 185 187 201 218 219 225 241 261 281 294 302 306 313 316 319 323 324 326 330 332 331 333 334 334 335 334 334 332 328
194 199 197 191 189 188 185 185 184 184 189 194 197 194 189 189 201 207 215 223 232 248 269 285 296 307 312 316 319 323 326 328 330 330 330 333 335 337 335 334 335 334 331
190 193 192 188 190 191 189 185 182 184 188 190 186 196 201 190 192 200 211 222 226 238 254 273 289 297 304 314 320 325 328 329 330 331 332 334 336 339 340 342 345 344 343
188 190 191 189 190 195 192 185 183 184 186 186 184 186 191 184 190 199 208 212 216 234 253 271 288 299 307 311 317 320 322 324 324 329 336 339 342 344 346 346 348 351 351
190 191 192 190 191 194 190 186 184 184 183 182 184 186 187 184 186 194 196 199 210 229 250 269 284 298 311 319 323 321 313 319 333 344 347 345 345 345 347 351 352 353 355
193 193 194 192 192 194 192 188 185 183 183 184 185 185 183 181 183 188 188 191 203 226 252 273 285 301 311 317 321 327 339 5 14 17 5 356 349 347 349 353 357 357 1
196 195 195 193 193 194 192 188 186 184 183 184 183 180 178 177 178 179 180 185 199 221 249 274 290 302 310 316 323 337 357 23 23 30 33 7 359 357 358 359 358 6 7
Height
1486 1488 1490 1491 1491 1491 1490 1490 1489 1488 1486 1482 1479 1476 1472 1469 1465 1461 1457 1453 1448 1444 1439 1434 1429 1425 1420 1416 1412 1409 1405 1400 1392 1383 1380 1376 1373 1370 1366 1362 1359 1356 1354
1479 1481 1483 1484 1484 1484 1484 1484 1484 1482 1480 1477 1474 1470 1467 1463 1459 1455 1451 1447 1442 1437 1432 1426 1421 1416 1412 1408 1405 1401 1397 1393 1387 1379 1374 1370 1367 1364 1360 1356 1353 1350 1347
1471 1473 1475 1476 1477 1478 1478 1478 1478 1476 1474 1471 1468 1465 1461 1457 1453 1449 1445 1440 1436 1431 1425 1419 1413 1409 1405 1401 1398 1394 1390 1386 1381 1375 1368 1364 1360 1357 1353 1350 1346 1343 1340
1463 1465 1467 1469 1470 1472 1472 1472 1472 1470 1468 1466 1463 1459 1455 1451 1447 1442 1438 1434 1430 1424 1419 1413 1407 1403 1398 1394 1391 1387 1383 1379 1374 1369 1363 1358 1354 1350 1348 1343 1338 1335 1332
1454 1456 1459 1462 1464 1465 1465 1466 1465 1464 1462 1460 1457 1453 1450 1445 1441 1436 1432 1428 1424 1418 1413 1408 1402 1397 1393 1389 1385 1381 1377 1372 1367 1362 1357 1352 1348 1345 1342 1338 1333 1328 1325
1445 1447 1452 1455 1457 1458 1459 1459 1459 1458 1456 1454 1451 1448 1444 1440 1435 1431 1428 1424 1419 1414 1408 1402 1397 1392 1387 1383 1379 1375 1372 1367 1361 1356 1350 1346 1341 1338 1335 1332 1328 1324 1320
1436 1440 1444 1447 1449 1451 1452 1452 1452 1451 1450 1448 1445 1442 1438 1434 1430 1425 1423 1419 1414 1409 1403 1397 1391 1386 1382 1377 1372 1368 1364 1360 1356 1351 1344 1339 1335 1331 1329 1325 1323 1320 1316
1428 1431 1435 1438 1441 1443 1444 1445 1445 1445 1444 1442 1440 1437 1433 1429 1424 1420 1417 1414 1409 1404 1399 1393 1387 1381 1377 1371 1366 1361 1357 1353 1348 1343 1338 1332 1328 1325 1322 1320 1317 1314 1311
1418 1421 1425 1429 1432 1434 1436 1437 1438 1438 1437 1436 1434 1431 1427 1423 1419 1415 1413 1408 1404 1399 1394 1389 1383 1378 1372 1367 1362 1356 1351 1346 1341 1336 1331 1326 1322 1318 1316 1314 1311 1309 1305
1408 1412 1416 1420 1423 1426 1428 1430 1431 1431 1431 1430 1428 1426 1422 1418 1414 1410 1408 1404 1399 1394 1389 1385 1380 1374 1369 1364 1358 1352 1346 1340 1334 1328 1323 1318 1314 1310 1308 1307 1304 1303 1301
1402 1405 1408 1412 1415 1418 1421 1423 1424 1424 1424 1424 1423 1421 1417 1413 1409 1406 1403 1400 1395 1390 1385 1380 1376 1371 1366 1361 1355 1349 1343 1337 1329 1323 1317 1312 1308 1304 1302 1300 1298 1297 1296
1393 1395 1399 1403 1406 1409 1412 1415 1417 1418 1418 1418 1417 1415 1413 1409 1405 1401 1398 1396 1392 1387 1382 1377 1372 1368 1363 1357 1352 1347 1341 1333 1326 1320 1314 1308 1303 1299 1296 1294 1292 1290 1289
1383 1385 1388 1393 1397 1401 1404 1407 1409 1411 1411 1412 1411 1410 1408 1405 1401 1398 1394 1391 1387 1384 1379 1375 1370 1365 1360 1354 1349 1344 1337 1330 1324 1317 1310 1305 1299 1295 1291 1288 1286 1284 1283
1373 1375 1379 1383 1387 1392 1396 1400 1402 1404 1405 1406 1406 1405 1403 1401 1398 1394 1390 1387 1384 1380 1376 1372 1368 1363 1358 1353 1347 1341 1335 1329 1323 1316 1308 1302 1296 1292 1288 1285 1282 1280 1279
1364 1367 1370 1374 1379 1384 1388 1392 1395 1398 1399 1400 1400 1400 1398 1396 1394 1391 1388 1384 1381 1378 1374 1370 1366 1361 1356 1350 1345 1339 1333 1327 1321 1314 1307 1300 1294 1290 1285 1282 1279 1277 1276
1355 1357 1361 1365 1370 1376 1381 1385 1389 1392 1393 1394 1395 1395 1393 1392 1389 1387 1384 1381 1378 1375 1372 1368 1364 1359 1354 1349 1344 1338 1333 1327 1320 1314 1307 1300 1294 1288 1284 1280 1278 1275 1273
1346 1348 1352 1356 1362 1367 1372 1377 1381 1385 1387 1388 1389 1389 1389 1387 1386 1383 1381 1378 1375 1373 1370 1367 1363 1358 1354 1349 1344 1338 1333 1327 1321 1314 1307 1301 1294 1289 1284 1279 1276 1273 1271
1338 1340 1342 1347 1352 1358 1363 1369 1373 1377 1379 1381 1383 1384 1384 1383 1382 1380 1377 1375 1373 1371 1368 1365 1362 1358 1353 1349 1344 1339 1333 1327 1321 1315 1308 1302 1295 1289 1284 1279 1276 1273 1270
1330 1331 1334 1338 1344 1350 1356 1361 1366 1370 1372 1375 1377 1378 1379 1379 1378 1376 1374 1372 1370 1369 1367 1364 1361 1357 1353 1349 1344 1339 1333 1328 1322 1316 1309 1303 1296 1291 1285 1280 1276 1273 1270
1321 1324 1327 1330 1334 1340 1347 1353 1358 1362 1365 1368 1370 1372 1374 1374 1373 1372 1371 1369 1368 1366 1364 1362 1360 1357 1353 1349 1344 1339 1334 1328 1323 1317 1311 1305 1299 1293 1287 1282 1277 1273 1269
1314 1316 1320 1322 1326 1331 1338 1344 1349 1354 1358 1361 1364 1367 1369 1369 1369 1369 1368 1366 1365 1364 1362 1361 1359 1356 1353 1349 1344 1339 1334 1329 1324 1319 1313 1307 1301 1295 1290 1284 1280 1275 1271
1307 1309 1313 1314 1318 1324 1330 1336 1342 1347 1351 1355 1359 1362 1363 1364 1365 1365 1364 1363 1362 1361 1360 1359 1357 1355 1352 1349 1344 1340 1335 1330 1325 1320 1315 1310 1304 1298 1292 1287 1282 1278 1273
1300 1302 1306 1309 1312 1318 1323 1329 1334 1340 1344 1349 1353 1356 1358 1360 1361 1361 1361 1360 1360 1359 1358 1357 1356 1354 1352 1349 1345 1341 1337 1332 1327 1323 1317 1312 1307 1301 1295 1290 1285 1281 1277
1293 1295 1299 1302 1306 1311 1316 1321 1327 1333 1338 1342 1347 1350 1353 1355 1357 1358 1358 1357 1357 1356 1356 1355 1354 1353 1351 1349 1345 1342 1338 1334 1330 1325 1320 1315 1310 1305 1299 1294 1289 1285 1281
1287 1289 1292 1295 1299 1304 1309 1315 1321 1326 1332 1336 1341 1345 1348 1351 1353 1354 1354 1354 1354 1354 1353 1353 1353 1352 1350 1348 1345 1342 1339 1335 1331 1328 1323 1319 1314 1309 1303 1299 1294 1290 1286
1280 1282 1285 1289 1293 1297 1303 1308 1314 1320 1325 1330 1335 1340 1343 1347 1349 1350 1351 1351 1351 1351 1351 1351 1351 1350 1349 1347 1345 1343 1340 1337 1333 1330 1326 1322 1318 1313 1308 1304 1300 1296 1292